Regional Weather Roundup
Issued by NWS

Home | Current Version | Previous Version | Graphics & Text | Print | Product List | Glossary On
Versions: 1 2 3 4 5 6 7 8 9 10 11 12 13 14 15 16 17 18 19 20 21 22 23 24 25 26 27 28 29 30 31 32 33 34 35 36 37 38 39 40 41 42 43 44 45 46 47 48 49 50
849
ASUS45 KBOI 250510
RWRID

IDAHO REGIONAL WEATHER ROUNDUP
NATIONAL WEATHER SERVICE BOISE ID
1100 PM MDT WED MAY 24 2017

NOTE: "FAIR" INDICATES FEW OR NO CLOUDS BELOW 12000 FEET
WITH NO SIGNIFICANT WEATHER AND/OR OBSTRUCTIONS TO VISIBILITY

IDZ012-014-250600-
SOUTHWEST IDAHO


CITY           SKY/WX    TMP DP  RH WIND       PRES   REMARKS
BOISE          CLEAR     58  26  29 NW24G30   29.67R
CALDWELL       CLEAR     57  28  33 NW17      29.71R
MOUNTAIN HOME  CLEAR     56  26  30 NW16      29.66R
$$

IDZ016-017-250600-
SOUTHCENTRAL IDAHO


CITY           SKY/WX    TMP DP  RH WIND       PRES   REMARKS
BURLEY         CLOUDY    59  23  25 W12       29.63R
JEROME         MOCLDY    57  22  25 SW17      29.65R
TWIN FALLS     MOCLDY    57  24  28 W16       29.66R
$$

IDZ019>023-250600-
SOUTHEAST IDAHO


CITY           SKY/WX    TMP DP  RH WIND       PRES   REMARKS
IDAHO FALLS    CLOUDY    56  19  23 SW17      29.57R
POCATELLO      CLOUDY    58  27  30 SW16      29.62R
REXBURG        CLOUDY    55  21  26 NE7       29.56R
$$

IDZ006-010-011-018-031-032-250600-
CENTRAL IDAHO MOUNTAINS


CITY           SKY/WX    TMP DP  RH WIND       PRES   REMARKS
MCCALL         PTCLDY    44  27  51 N12G20    29.75R
HAILEY         CLEAR     45  18  33 NW7       29.64R
STANLEY          N/A     39  17  41 W5        29.71R
SALMON         CLOUDY    48  25  40 NE12      29.68R
CHALLIS        MOCLDY    51  23  33 NW9       29.65R
$$

IDZ002-004-006-007-026-250600-
NORTHERN IDAHO


CITY           SKY/WX    TMP DP  RH WIND       PRES   REMARKS
LEWISTON       CLOUDY    59  33  37 W5        29.75R
LOWELL           N/A     53  38  56 N3        29.78R
COEUR D`ALENE  PTCLDY    51  36  56 N6        29.75R
MULLAN PASS    CLOUDY    34  27  75 NW5       29.75R WCI  30
$$




USA.gov is the U.S. government's official web portal to all federal, state and local government web resources and services.